Location: Albany
(35.0000°S, 118.0000°E)
Time: 07:11:49
(UTC-04:00)

Tiangong - Pass Details

Date: 26 September 2021
Orbit: 382 x 385 km, 41.5° (Epoch: 16 October)

Event Time Altitude Azimuth Distance (km) Brightness Sun altitude
Rises 08:32:35 0° 244° (WSW) 2,291 6.2 -29.6°
Reaches altitude 10° 08:34:49 10° 233° (SW) 1,434 4.8 -30.0°
Enters shadow 08:35:10 12° 230° (SW) 1,305 4.5 -30.0°
